contact:dominique.lefevre@mio.osupytheas.fr, maurice.libes@osupytheas.fr, didier.mallarino@osupytheas.fr
Project:EMSO http://www.emso-fr.org/EMSO-France
Depth: 2436.0 m
Title:EMSO Ligure Ouest : Data MII capteur AQUADOPP
Date,Latitude,Longitude,X_East,Y_North,Z_Up,Amplitude_X,Amplitude_Y,Amplitude_Z,Batterie,SoundSpeed,Heading,Pitch,Roll,Pressure,TIS,Speed,Direction
, degrees North, degrees East, m.s-1, m.s-1,m.s-1, 1, 1, 1, Volt, m.s-1, degree, degree, degree, dbar, degree_C, m.s-1, degree
2020-05-11T00:04:03,42.805,6.029,0.029,0.011,0.017,104.0,108.0,101.0,13.4,1505.3,328.3,-0.7,1.8,2470.415,13.32,0.031,69.2
2020-05-11T00:07:03,42.805,6.029,0.01,0.024,-0.005,103.0,109.0,101.0,13.4,1505.3,326.8,-0.7,1.9,2470.382,13.33,0.026,22.6
2020-05-11T00:10:03,42.805,6.029,-0.011,0.029,-0.015,103.0,109.0,101.0,13.4,1505.3,325.6,-0.7,1.8,2470.413,13.33,0.031,339.2
2020-05-11T00:13:03,42.805,6.029,0.014,0.029,-0.037,104.0,108.0,101.0,13.4,1505.4,324.8,-0.7,1.8,2470.368,13.34,0.032,25.8
2020-05-11T00:16:03,42.805,6.029,0.009,0.012,-0.02,105.0,108.0,101.0,13.4,1505.4,327.3,-0.7,1.8,2470.388,13.34,0.015,36.9
2020-05-11T00:19:03,42.805,6.029,0.012,0.015,-0.042,104.0,108.0,101.0,13.4,1505.4,323.1,-0.7,1.8,2470.385,13.34,0.019,38.7
2020-05-11T00:22:03,42.805,6.029,-0.019,0.038,-0.023,104.0,108.0,101.0,13.3,1505.4,326.7,-0.7,1.8,2470.368,13.34,0.042,333.4
2020-05-11T00:25:03,42.805,6.029,0.023,0.007,-0.018,104.0,110.0,101.0,13.4,1505.4,325.0,-0.7,1.8,2470.371,13.34,0.024,73.1
2020-05-11T00:28:03,42.805,6.029,-0.002,0.02,-0.014,104.0,108.0,102.0,13.3,1505.4,328.1,-0.7,1.8,2470.361,13.34,0.02,354.3
2020-05-11T00:31:03,42.805,6.029,-0.008,0.029,-0.028,104.0,109.0,102.0,13.4,1505.4,326.9,-0.7,1.8,2470.388,13.34,0.03,344.6
2020-05-11T00:34:03,42.805,6.029,0.007,0.01,-0.029,105.0,108.0,101.0,13.4,1505.4,328.5,-0.7,1.8,2470.372,13.34,0.012,35.0
2020-05-11T00:37:03,42.805,6.029,-0.005,0.018,-0.063,104.0,108.0,102.0,13.3,1505.4,325.9,-0.7,1.8,2470.376,13.34,0.018,344.5
2020-05-11T00:40:03,42.805,6.029,0.004,0.041,-0.008,104.0,109.0,103.0,13.3,1505.4,326.3,-0.7,1.8,2470.363,13.34,0.041,5.6
2020-05-11T00:43:03,42.805,6.029,-0.02,0.03,-0.014,104.0,108.0,103.0,13.4,1505.4,324.5,-0.7,1.8,2470.35,13.34,0.036,326.3
2020-05-11T00:46:03,42.805,6.029,-0.009,0.033,-0.002,103.0,107.0,102.0,13.4,1505.4,323.2,-0.7,1.9,2470.373,13.34,0.034,344.7
2020-05-11T00:49:03,42.805,6.029,-0.017,0.027,-0.044,106.0,108.0,103.0,13.3,1505.4,327.9,-0.7,1.8,2470.399,13.34,0.031,327.8
2020-05-11T00:52:03,42.805,6.029,0.009,0.007,-0.021,105.0,107.0,103.0,13.4,1505.4,325.2,-0.7,1.8,2470.313,13.34,0.011,52.1
2020-05-11T00:55:03,42.805,6.029,0.003,0.007,-0.014,105.0,108.0,102.0,13.4,1505.4,326.8,-0.7,1.8,2470.353,13.34,0.007,23.2
2020-05-11T00:58:03,42.805,6.029,-0.008,0.014,-0.019,106.0,107.0,102.0,13.4,1505.4,323.7,-0.7,1.8,2470.317,13.34,0.016,330.3
2020-05-11T01:04:03,42.805,6.029,-0.018,0.011,-0.012,105.0,109.0,104.0,13.4,1505.3,326.2,-0.8,1.9,2470.404,13.32,0.021,301.4
2020-05-11T01:07:03,42.805,6.029,-0.006,0.021,-0.018,103.0,107.0,102.0,13.3,1505.3,326.6,-0.7,1.8,2470.344,13.33,0.021,344.1
2020-05-11T01:10:03,42.805,6.029,-0.017,0.029,-0.041,105.0,107.0,103.0,13.3,1505.3,326.1,-0.7,1.8,2470.403,13.33,0.033,329.6
2020-05-11T01:13:03,42.805,6.029,0.004,0.024,0.016,106.0,107.0,102.0,13.3,1505.3,324.6,-0.7,1.8,2470.373,13.33,0.024,9.5
2020-05-11T01:16:03,42.805,6.029,-0.023,0.023,-0.024,106.0,108.0,102.0,13.4,1505.3,326.6,-0.7,1.8,2470.342,13.33,0.032,315.0
2020-05-11T01:19:03,42.805,6.029,-0.028,0.028,-0.029,103.0,108.0,102.0,13.3,1505.3,323.6,-0.7,1.8,2470.346,13.33,0.039,315.0
2020-05-11T01:22:03,42.805,6.029,-0.019,0.026,-0.016,105.0,107.0,102.0,13.4,1505.3,325.2,-0.7,1.9,2470.341,13.33,0.032,323.8
2020-05-11T01:25:03,42.805,6.029,-0.003,0.022,-0.011,105.0,107.0,103.0,13.4,1505.3,324.3,-0.7,1.8,2470.353,13.33,0.022,352.2
2020-05-11T01:28:03,42.805,6.029,-0.005,0.018,-0.042,105.0,108.0,101.0,13.4,1505.3,328.0,-0.7,1.8,2470.346,13.33,0.018,344.5
2020-05-11T01:31:03,42.805,6.029,0.006,0.024,-0.045,106.0,108.0,101.0,13.4,1505.3,325.6,-0.8,1.8,2470.352,13.33,0.024,14.0
2020-05-11T01:34:03,42.805,6.029,-0.007,0.023,-0.012,105.0,106.0,101.0,13.4,1505.3,323.4,-0.7,1.8,2470.277,13.33,0.024,343.1
2020-05-11T01:37:03,42.805,6.029,-0.023,0.033,-0.013,105.0,107.0,102.0,13.3,1505.3,324.2,-0.7,1.8,2470.296,13.33,0.04,325.1
2020-05-11T01:40:03,42.805,6.029,-0.025,0.022,-0.011,105.0,108.0,102.0,13.3,1505.3,327.3,-0.7,1.8,2470.29,13.33,0.033,311.3
2020-05-11T01:43:03,42.805,6.029,-0.007,0.024,-0.024,106.0,108.0,101.0,13.3,1505.3,326.8,-0.7,1.8,2470.302,13.33,0.025,343.7
2020-05-11T01:46:03,42.805,6.029,-0.009,0.036,-0.006,105.0,108.0,102.0,13.3,1505.3,326.3,-0.7,1.8,2470.331,13.33,0.037,346.0
2020-05-11T01:49:03,42.805,6.029,0.001,0.026,-0.034,104.0,106.0,103.0,13.3,1505.3,323.7,-0.7,1.8,2470.281,13.33,0.026,2.2
2020-05-11T01:52:03,42.805,6.029,-0.01,0.028,-0.003,105.0,107.0,101.0,13.4,1505.3,323.4,-0.7,1.8,2470.331,13.33,0.029,340.4
2020-05-11T01:55:03,42.805,6.029,0.012,0.037,-0.011,106.0,107.0,102.0,13.4,1505.3,326.4,-0.7,1.8,2470.306,13.33,0.038,18.0
2020-05-11T01:58:03,42.805,6.029,-0.006,0.019,-0.038,103.0,108.0,103.0,13.3,1505.4,326.7,-0.7,1.8,2470.34,13.34,0.019,342.5
2020-05-11T02:04:03,42.805,6.029,0.0,0.043,-0.009,106.0,106.0,102.0,13.3,1505.3,326.5,-0.7,1.8,2470.296,13.31,0.043,0.0
2020-05-11T02:07:03,42.805,6.029,-0.039,0.033,-0.031,102.0,108.0,102.0,13.4,1505.3,327.9,-0.7,1.8,2470.322,13.32,0.051,310.2
2020-05-11T02:10:03,42.805,6.029,-0.032,0.012,-0.057,104.0,107.0,101.0,13.4,1505.3,324.3,-0.7,1.8,2470.342,13.33,0.034,290.6
2020-05-11T02:13:03,42.805,6.029,-0.02,0.037,-0.011,106.0,108.0,101.0,13.4,1505.3,326.3,-0.7,1.8,2470.33,13.33,0.042,331.6
2020-05-11T02:16:03,42.805,6.029,-0.006,0.036,-0.017,105.0,109.0,100.0,13.3,1505.3,325.2,-0.7,1.8,2470.312,13.33,0.036,350.5
2020-05-11T02:19:03,42.805,6.029,-0.021,0.031,-0.079,103.0,107.0,103.0,13.4,1505.3,327.0,-0.7,1.8,2470.324,13.33,0.037,325.9
2020-05-11T02:22:03,42.805,6.029,-0.011,0.035,-0.001,104.0,110.0,100.0,13.3,1505.3,326.0,-0.7,1.8,2470.312,13.33,0.036,342.6
2020-05-11T02:25:03,42.805,6.029,-0.037,0.029,-0.03,104.0,107.0,102.0,13.3,1505.3,328.0,-0.7,1.8,2470.291,13.33,0.047,308.1
2020-05-11T02:28:03,42.805,6.029,-0.016,0.054,-0.021,104.0,108.0,102.0,13.4,1505.3,324.7,-0.7,1.8,2470.262,13.33,0.056,343.5
2020-05-11T02:31:03,42.805,6.029,-0.002,0.037,-0.018,104.0,105.0,100.0,13.3,1505.3,326.9,-0.7,1.8,2470.311,13.33,0.037,356.9
2020-05-11T02:34:03,42.805,6.029,0.003,0.028,-0.017,104.0,108.0,101.0,13.4,1505.3,324.7,-0.7,1.8,2470.264,13.33,0.028,6.1
2020-05-11T02:37:03,42.805,6.029,-0.013,0.028,-0.03,103.0,109.0,102.0,13.3,1505.3,326.2,-0.7,1.8,2470.297,13.33,0.03,335.1
2020-05-11T02:40:03,42.805,6.029,0.012,0.042,-0.001,105.0,108.0,102.0,13.4,1505.3,326.8,-0.7,1.8,2470.287,13.33,0.043,15.9
2020-05-11T02:43:03,42.805,6.029,-0.01,0.04,-0.011,105.0,109.0,102.0,13.4,1505.3,324.3,-0.7,1.8,2470.3,13.33,0.041,346.0
2020-05-11T02:46:03,42.805,6.029,-0.025,0.011,-0.064,104.0,107.0,102.0,13.4,1505.3,324.5,-0.7,1.8,2470.3,13.33,0.027,293.7
2020-05-11T02:49:03,42.805,6.029,-0.022,0.042,-0.019,105.0,108.0,102.0,13.4,1505.3,326.5,-0.7,1.8,2470.281,13.33,0.047,332.4
2020-05-11T02:52:03,42.805,6.029,-0.011,0.025,-0.022,106.0,109.0,101.0,13.3,1505.3,323.8,-0.7,1.8,2470.305,13.33,0.027,336.3
2020-05-11T02:55:03,42.805,6.029,-0.012,0.041,-0.026,106.0,108.0,101.0,13.4,1505.3,326.5,-0.7,1.8,2470.282,13.33,0.042,343.7
2020-05-11T02:58:03,42.805,6.029,-0.02,0.036,-0.015,103.0,109.0,103.0,13.4,1505.3,324.9,-0.7,1.9,2470.288,13.33,0.041,330.9
2020-05-11T03:04:03,42.805,6.029,-0.002,0.033,-0.031,104.0,108.0,101.0,13.4,1505.3,326.0,-0.7,1.8,2470.318,13.31,0.033,356.5
2020-05-11T03:07:03,42.805,6.029,-0.032,0.015,-0.031,105.0,107.0,102.0,13.3,1505.3,326.0,-0.7,1.9,2470.294,13.32,0.035,295.1
2020-05-11T03:10:03,42.805,6.029,-0.018,0.041,-0.008,105.0,107.0,101.0,13.4,1505.3,325.0,-0.7,1.8,2470.283,13.33,0.044,336.3
2020-05-11T03:13:03,42.805,6.029,0.003,0.029,-0.002,104.0,107.0,103.0,13.3,1505.3,324.7,-0.7,1.9,2470.291,13.33,0.029,5.9
2020-05-11T03:16:03,42.805,6.029,-0.012,0.037,-0.025,104.0,106.0,101.0,13.3,1505.3,323.9,-0.7,1.8,2470.293,13.33,0.038,342.0
2020-05-11T03:19:03,42.805,6.029,0.017,0.045,-0.01,104.0,107.0,102.0,13.4,1505.3,326.1,-0.7,1.8,2470.322,13.33,0.048,20.7
2020-05-11T03:22:03,42.805,6.029,-0.023,0.035,-0.032,105.0,107.0,101.0,13.3,1505.3,323.9,-0.7,1.9,2470.27,13.33,0.041,326.7
2020-05-11T03:25:03,42.805,6.029,-0.008,0.031,-0.025,105.0,107.0,101.0,13.4,1505.3,325.5,-0.7,1.8,2470.291,13.33,0.032,345.5
2020-05-11T03:28:03,42.805,6.029,-0.01,0.023,-0.02,105.0,108.0,102.0,13.4,1505.3,326.4,-0.7,1.9,2470.264,13.33,0.025,336.5
2020-05-11T03:31:03,42.805,6.029,-0.004,0.042,0.009,104.0,108.0,103.0,13.3,1505.3,328.2,-0.7,1.8,2470.293,13.33,0.042,354.6
2020-05-11T03:34:03,42.805,6.029,-0.011,0.032,-0.022,107.0,109.0,102.0,13.4,1505.3,324.9,-0.7,1.9,2470.267,13.33,0.033,341.0
2020-05-11T03:37:03,42.805,6.029,0.006,0.025,-0.03,104.0,111.0,102.0,13.3,1505.3,324.2,-0.7,1.9,2470.285,13.33,0.025,13.5
2020-05-11T03:40:03,42.805,6.029,-0.004,0.037,0.0,106.0,109.0,102.0,13.3,1505.3,326.3,-0.7,1.8,2470.238,13.33,0.037,353.8
2020-05-11T03:43:03,42.805,6.029,-0.001,0.015,-0.04,105.0,109.0,103.0,13.4,1505.3,323.9,-0.7,1.8,2470.29,13.33,0.015,356.2
2020-05-11T03:46:03,42.805,6.029,0.016,0.031,0.006,105.0,109.0,102.0,13.4,1505.3,323.7,-0.7,1.8,2470.261,13.33,0.034,27.3
2020-05-11T03:49:03,42.805,6.029,-0.017,0.001,-0.017,105.0,110.0,103.0,13.4,1505.3,328.6,-0.7,1.8,2470.267,13.33,0.017,273.4
2020-05-11T03:52:03,42.805,6.029,-0.017,0.029,-0.01,105.0,111.0,104.0,13.3,1505.3,326.9,-0.7,1.9,2470.287,13.33,0.033,329.6
2020-05-11T03:55:03,42.805,6.029,-0.003,0.013,-0.03,107.0,108.0,103.0,13.3,1505.3,325.0,-0.7,1.9,2470.265,13.33,0.013,347.0
2020-05-11T03:58:03,42.805,6.029,-0.007,0.013,-0.022,105.0,110.0,104.0,13.4,1505.3,325.5,-0.7,1.8,2470.269,13.33,0.014,331.7
2020-05-11T04:04:03,42.805,6.029,0.007,0.022,-0.027,105.0,108.0,103.0,13.4,1505.3,323.5,-0.7,1.8,2470.286,13.31,0.023,17.6
2020-05-11T04:07:03,42.805,6.029,-0.01,0.039,-0.013,105.0,111.0,102.0,13.4,1505.3,328.4,-0.7,1.8,2470.274,13.32,0.04,345.6
2020-05-11T04:10:03,42.805,6.029,0.002,0.029,-0.019,107.0,111.0,103.0,13.4,1505.3,325.2,-0.7,1.8,2470.281,13.33,0.029,3.9
2020-05-11T04:13:03,42.805,6.029,0.006,0.047,-0.018,105.0,109.0,102.0,13.4,1505.3,323.0,-0.7,1.8,2470.286,13.33,0.047,7.3
2020-05-11T04:16:03,42.805,6.029,0.011,0.027,-0.035,107.0,109.0,102.0,13.4,1505.3,327.6,-0.8,1.8,2470.256,13.33,0.029,22.2
2020-05-11T04:19:03,42.805,6.029,0.016,0.014,-0.014,106.0,112.0,102.0,13.3,1505.3,324.9,-0.7,1.8,2470.277,13.33,0.021,48.8
2020-05-11T04:22:03,42.805,6.029,-0.02,0.041,-0.012,106.0,111.0,102.0,13.3,1505.3,325.8,-0.7,1.8,2470.257,13.33,0.045,334.0
2020-05-11T04:25:03,42.805,6.029,-0.005,0.046,-0.004,106.0,109.0,103.0,13.4,1505.3,325.0,-0.7,1.8,2470.274,13.33,0.046,353.8
2020-05-11T04:28:03,42.805,6.029,-0.009,0.036,0.008,106.0,110.0,103.0,13.4,1505.3,326.2,-0.7,1.8,2470.261,13.33,0.037,346.0
2020-05-11T04:31:03,42.805,6.029,0.0,0.03,-0.037,106.0,110.0,104.0,13.4,1505.3,325.6,-0.7,1.8,2470.258,13.33,0.03,0.0
2020-05-11T04:34:03,42.805,6.029,-0.001,0.027,-0.023,108.0,109.0,103.0,13.3,1505.3,324.0,-0.7,1.8,2470.205,13.33,0.027,357.9
2020-05-11T04:37:03,42.805,6.029,-0.027,0.024,-0.019,106.0,108.0,105.0,13.4,1505.3,326.4,-0.7,1.8,2470.268,13.33,0.036,311.6
2020-05-11T04:40:03,42.805,6.029,-0.019,0.015,-0.05,106.0,109.0,103.0,13.4,1505.3,323.4,-0.7,1.8,2470.258,13.33,0.024,308.3
2020-05-11T04:43:03,42.805,6.029,-0.039,0.031,-0.039,107.0,110.0,103.0,13.4,1505.3,324.4,-0.7,1.8,2470.255,13.33,0.049,308.5
2020-05-11T04:46:03,42.805,6.029,0.007,0.043,-0.009,107.0,109.0,103.0,13.4,1505.3,322.8,-0.7,1.8,2470.222,13.33,0.043,9.2
2020-05-11T04:49:03,42.805,6.029,-0.007,0.021,-0.001,107.0,111.0,103.0,13.4,1505.3,327.3,-0.7,1.8,2470.232,13.33,0.022,341.6
2020-05-11T04:52:03,42.805,6.029,-0.024,0.037,-0.05,106.0,110.0,103.0,13.4,1505.3,328.1,-0.7,1.8,2470.236,13.33,0.044,327.0
2020-05-11T04:55:03,42.805,6.029,-0.022,0.032,-0.011,106.0,110.0,103.0,13.4,1505.3,323.5,-0.7,1.8,2470.204,13.33,0.038,325.5
2020-05-11T04:58:03,42.805,6.029,0.0,0.024,-0.009,106.0,111.0,103.0,13.4,1505.3,325.1,-0.7,1.8,2470.237,13.33,0.024,0.0
2020-05-11T05:04:03,42.805,6.029,-0.018,0.021,-0.02,105.0,109.0,102.0,13.4,1505.3,323.3,-0.8,1.8,2470.248,13.31,0.027,319.4
2020-05-11T05:07:03,42.805,6.029,-0.01,0.002,-0.017,108.0,109.0,103.0,13.4,1505.3,326.9,-0.7,1.8,2470.272,13.32,0.01,281.3
2020-05-11T05:10:03,42.805,6.029,0.015,0.025,-0.016,107.0,110.0,102.0,13.3,1505.3,325.4,-0.7,1.8,2470.261,13.32,0.029,31.0
2020-05-11T05:13:03,42.805,6.029,0.004,0.048,-0.01,106.0,109.0,104.0,13.4,1505.3,328.2,-0.7,1.8,2470.269,13.33,0.048,4.8
2020-05-11T05:19:03,42.805,6.029,-0.004,0.04,-0.033,105.0,111.0,102.0,13.4,1505.3,323.5,-0.7,1.8,2470.3,13.31,0.04,354.3
2020-05-11T05:22:03,42.805,6.029,0.0,0.037,-0.009,104.0,108.0,103.0,13.4,1505.3,325.3,-0.7,1.8,2470.267,13.32,0.037,0.0
2020-05-11T05:25:03,42.805,6.029,0.008,0.048,-0.003,105.0,110.0,102.0,13.4,1505.3,328.3,-0.7,1.9,2470.275,13.32,0.048,9.5
2020-05-11T05:28:03,42.805,6.029,0.0,-0.002,-0.017,108.0,108.0,104.0,13.4,1505.3,328.4,-0.7,1.8,2470.266,13.33,0.002,180.0
2020-05-11T05:31:03,42.805,6.029,-0.003,0.033,-0.024,107.0,108.0,103.0,13.3,1505.3,324.9,-0.7,1.8,2470.245,13.33,0.033,354.8
2020-05-11T05:34:03,42.805,6.029,0.02,0.03,0.003,107.0,110.0,102.0,13.4,1505.3,326.9,-0.7,1.8,2470.268,13.33,0.036,33.7
2020-05-11T05:37:03,42.805,6.029,0.03,0.041,0.012,105.0,109.0,103.0,13.3,1505.3,328.4,-0.7,1.9,2470.252,13.33,0.05,36.2
2020-05-11T05:40:03,42.805,6.029,0.01,0.045,-0.033,105.0,108.0,102.0,13.4,1505.3,323.3,-0.7,1.8,2470.232,13.33,0.046,12.5
2020-05-11T05:43:03,42.805,6.029,-0.001,0.023,-0.031,107.0,108.0,104.0,13.4,1505.3,326.4,-0.7,1.8,2470.278,13.33,0.023,357.5
2020-05-11T05:46:03,42.805,6.029,0.007,0.054,-0.02,106.0,109.0,104.0,13.4,1505.3,326.7,-0.7,1.8,2470.257,13.33,0.054,7.4
2020-05-11T05:49:03,42.805,6.029,-0.017,0.027,-0.008,107.0,109.0,103.0,13.4,1505.3,327.6,-0.7,1.9,2470.239,13.33,0.031,327.8
2020-05-11T05:52:03,42.805,6.029,-0.018,0.037,-0.031,106.0,109.0,102.0,13.4,1505.3,328.3,-0.7,1.8,2470.255,13.33,0.041,334.1
2020-05-11T05:55:03,42.805,6.029,0.001,0.038,0.014,105.0,108.0,102.0,13.3,1505.3,326.6,-0.7,1.8,2470.267,13.33,0.038,1.5
2020-05-11T05:58:03,42.805,6.029,0.002,0.045,-0.012,106.0,109.0,102.0,13.4,1505.3,325.3,-0.7,1.9,2470.244,13.33,0.045,2.5
2020-05-11T06:04:03,42.805,6.029,-0.015,0.021,-0.005,106.0,109.0,102.0,13.4,1505.3,326.7,-0.7,1.8,2470.258,13.31,0.025,324.5
2020-05-11T06:07:03,42.805,6.029,0.036,0.04,-0.005,104.0,109.0,101.0,13.3,1505.3,328.4,-0.7,1.9,2470.285,13.32,0.053,42.0
2020-05-11T06:10:03,42.805,6.029,0.024,0.042,-0.016,107.0,108.0,104.0,13.3,1505.3,327.7,-0.7,1.8,2470.296,13.32,0.048,29.7
2020-05-11T06:13:03,42.805,6.029,0.034,0.055,0.011,105.0,108.0,103.0,13.4,1505.3,326.0,-0.7,1.8,2470.259,13.33,0.064,31.7
2020-05-11T06:16:03,42.805,6.029,0.028,0.014,0.021,104.0,109.0,102.0,13.3,1505.3,326.6,-0.7,1.8,2470.289,13.33,0.031,63.4
2020-05-11T06:19:03,42.805,6.029,0.011,0.036,0.019,104.0,108.0,103.0,13.4,1505.3,327.8,-0.7,1.8,2470.263,13.33,0.037,17.0
2020-05-11T06:22:03,42.805,6.029,0.018,0.04,0.0,106.0,109.0,102.0,13.4,1505.3,324.7,-0.7,1.8,2470.288,13.33,0.043,24.2
2020-05-11T06:25:03,42.805,6.029,-0.012,0.047,-0.009,105.0,107.0,100.0,13.4,1505.3,325.5,-0.7,1.8,2470.305,13.33,0.048,345.7
2020-05-11T06:28:03,42.805,6.029,0.008,0.044,-0.022,106.0,108.0,103.0,13.4,1505.3,327.7,-0.7,1.9,2470.269,13.33,0.044,10.3
2020-05-11T06:31:03,42.805,6.029,0.008,0.028,-0.015,105.0,109.0,102.0,13.4,1505.3,323.4,-0.7,1.8,2470.268,13.33,0.029,15.9
2020-05-11T06:34:03,42.805,6.029,-0.017,0.025,-0.032,105.0,107.0,103.0,13.4,1505.3,324.9,-0.7,1.9,2470.28,13.33,0.03,325.8
2020-05-11T06:37:03,42.805,6.029,0.007,0.038,-0.029,104.0,109.0,102.0,13.4,1505.3,326.9,-0.7,1.8,2470.254,13.33,0.038,10.4
2020-05-11T06:40:03,42.805,6.029,0.001,0.05,-0.014,105.0,107.0,102.0,13.3,1505.3,326.4,-0.7,1.8,2470.281,13.33,0.05,1.1
2020-05-11T06:43:03,42.805,6.029,0.007,0.044,0.011,104.0,108.0,102.0,13.4,1505.3,324.7,-0.6,1.8,2470.309,13.33,0.044,9.0
2020-05-11T06:46:03,42.805,6.029,0.016,0.027,0.023,105.0,109.0,103.0,13.4,1505.3,323.4,-0.7,1.8,2470.27,13.33,0.031,30.7
2020-05-11T06:49:03,42.805,6.029,0.005,0.045,-0.006,105.0,108.0,103.0,13.4,1505.3,324.7,-0.7,1.8,2470.238,13.33,0.045,6.3
2020-05-11T06:52:03,42.805,6.029,-0.001,0.039,-0.013,104.0,107.0,101.0,13.4,1505.3,326.8,-0.7,1.8,2470.189,13.33,0.039,358.5
2020-05-11T06:55:03,42.805,6.029,0.02,0.033,-0.026,105.0,109.0,102.0,13.4,1505.3,327.2,-0.7,1.8,2470.226,13.33,0.038,31.2
2020-05-11T06:58:03,42.805,6.029,-0.002,0.053,-0.007,106.0,109.0,102.0,13.3,1505.3,323.0,-0.7,1.8,2470.212,13.33,0.053,357.8
2020-05-11T07:04:03,42.805,6.029,-0.002,0.041,-0.031,104.0,110.0,103.0,13.3,1505.3,325.3,-0.7,1.8,2470.307,13.31,0.041,357.2
2020-05-11T07:07:03,42.805,6.029,0.003,0.037,0.009,105.0,107.0,103.0,13.4,1505.3,323.3,-0.7,1.9,2470.326,13.32,0.037,4.6
2020-05-11T07:10:03,42.805,6.029,-0.001,0.056,0.009,104.0,109.0,103.0,13.4,1505.3,328.0,-0.7,1.8,2470.321,13.32,0.056,359.0
2020-05-11T07:13:03,42.805,6.029,-0.006,0.018,-0.024,106.0,109.0,101.0,13.4,1505.3,328.4,-0.7,1.8,2470.265,13.32,0.018,341.6
2020-05-11T07:16:03,42.805,6.029,0.013,0.04,0.001,105.0,107.0,102.0,13.4,1505.3,327.7,-0.6,1.8,2470.278,13.33,0.042,18.0
2020-05-11T07:19:03,42.805,6.029,0.009,0.039,-0.013,106.0,107.0,102.0,13.3,1505.3,326.1,-0.7,1.8,2470.276,13.33,0.04,13.0
2020-05-11T07:22:03,42.805,6.029,0.004,0.032,-0.004,105.0,110.0,103.0,13.3,1505.3,324.8,-0.7,1.8,2470.255,13.33,0.032,7.1
2020-05-11T07:25:03,42.805,6.029,0.013,0.033,-0.035,104.0,108.0,103.0,13.4,1505.3,326.8,-0.7,1.8,2470.296,13.33,0.035,21.5
2020-05-11T07:28:03,42.805,6.029,0.0,0.054,0.007,104.0,108.0,103.0,13.4,1505.3,323.1,-0.7,1.8,2470.316,13.33,0.053,0.0
2020-05-11T07:31:03,42.805,6.029,0.006,0.039,-0.019,105.0,108.0,101.0,13.3,1505.3,328.1,-0.7,1.8,2470.278,13.33,0.039,8.7
2020-05-11T07:34:03,42.805,6.029,0.0,0.034,-0.023,105.0,110.0,102.0,13.4,1505.3,325.4,-0.7,1.8,2470.324,13.33,0.034,0.0
2020-05-11T07:37:03,42.805,6.029,0.023,0.017,0.007,105.0,110.0,102.0,13.3,1505.3,323.0,-0.7,1.8,2470.347,13.33,0.028,53.5
2020-05-11T07:40:03,42.805,6.029,0.012,0.054,0.013,104.0,110.0,101.0,13.3,1505.3,325.7,-0.7,1.8,2470.299,13.33,0.055,12.5
2020-05-11T07:43:03,42.805,6.029,-0.005,0.025,-0.032,104.0,109.0,102.0,13.4,1505.3,326.5,-0.7,1.8,2470.287,13.33,0.025,348.7
2020-05-11T07:46:03,42.805,6.029,0.018,0.055,0.002,104.0,108.0,103.0,13.4,1505.3,327.0,-0.7,1.8,2470.314,13.33,0.057,18.1
2020-05-11T07:49:03,42.805,6.029,-0.007,0.031,-0.015,104.0,108.0,102.0,13.4,1505.3,323.3,-0.7,1.8,2470.313,13.33,0.031,347.3
2020-05-11T07:52:03,42.805,6.029,-0.01,0.039,-0.045,105.0,109.0,103.0,13.3,1505.3,327.6,-0.7,1.8,2470.325,13.33,0.04,345.6
2020-05-11T07:55:03,42.805,6.029,0.0,0.045,0.006,105.0,109.0,102.0,13.4,1505.3,325.2,-0.7,1.8,2470.29,13.33,0.045,0.0
2020-05-11T07:58:03,42.805,6.029,-0.009,0.044,-0.027,105.0,109.0,102.0,13.4,1505.3,323.4,-0.8,1.8,2470.297,13.33,0.044,348.4
2020-05-11T08:04:03,42.805,6.029,0.004,0.053,0.001,105.0,109.0,102.0,13.4,1505.3,326.7,-0.7,1.8,2470.385,13.31,0.053,4.3
2020-05-11T08:07:03,42.805,6.029,0.019,0.023,0.028,106.0,107.0,102.0,13.3,1505.3,322.9,-0.7,1.8,2470.348,13.32,0.029,39.6
2020-05-11T08:10:03,42.805,6.029,-0.002,0.045,0.002,106.0,111.0,101.0,13.4,1505.3,324.2,-0.7,1.8,2470.325,13.32,0.045,357.5
2020-05-11T08:13:03,42.805,6.029,0.003,0.058,0.004,105.0,110.0,101.0,13.4,1505.3,324.5,-0.7,1.8,2470.324,13.33,0.058,3.0
2020-05-11T08:16:03,42.805,6.029,0.018,0.045,-0.02,105.0,110.0,102.0,13.4,1505.3,326.0,-0.7,1.9,2470.396,13.33,0.048,21.8
2020-05-11T08:19:03,42.805,6.029,-0.004,0.059,-0.033,104.0,112.0,102.0,13.3,1505.3,325.5,-0.7,1.8,2470.343,13.33,0.059,356.1
2020-05-11T08:22:03,42.805,6.029,0.017,0.018,-0.024,106.0,109.0,102.0,13.4,1505.3,326.8,-0.7,1.8,2470.338,13.33,0.024,43.4
2020-05-11T08:25:03,42.805,6.029,0.008,0.027,-0.003,106.0,110.0,103.0,13.4,1505.3,328.7,-0.7,1.9,2470.306,13.33,0.028,16.5
2020-05-11T08:28:03,42.805,6.029,-0.016,0.035,-0.03,107.0,110.0,102.0,13.3,1505.3,326.4,-0.7,1.8,2470.336,13.33,0.038,335.4
2020-05-11T08:31:03,42.805,6.029,-0.008,0.029,-0.028,104.0,110.0,101.0,13.4,1505.3,326.8,-0.7,1.8,2470.326,13.33,0.03,344.6
2020-05-11T08:34:03,42.805,6.029,0.024,0.033,-0.004,105.0,109.0,102.0,13.4,1505.3,326.4,-0.7,1.9,2470.352,13.33,0.04,36.0
2020-05-11T08:37:03,42.805,6.029,0.014,0.039,-0.026,105.0,109.0,102.0,13.3,1505.3,328.7,-0.7,1.8,2470.345,13.33,0.041,19.7
2020-05-11T08:40:03,42.805,6.029,-0.014,0.048,-0.018,105.0,111.0,101.0,13.4,1505.3,325.3,-0.7,1.8,2470.362,13.33,0.05,343.7
2020-05-11T08:43:03,42.805,6.029,-0.011,0.036,-0.046,105.0,110.0,101.0,13.4,1505.3,328.0,-0.7,1.8,2470.335,13.33,0.037,343.0
2020-05-11T08:46:03,42.805,6.029,-0.008,0.032,-0.016,104.0,110.0,102.0,13.4,1505.3,323.2,-0.7,1.8,2470.314,13.33,0.032,346.0
2020-05-11T08:49:03,42.805,6.029,-0.009,0.034,-0.004,104.0,110.0,102.0,13.3,1505.3,326.1,-0.7,1.8,2470.34,13.33,0.035,345.2
2020-05-11T08:52:03,42.805,6.029,0.014,0.036,0.015,104.0,110.0,102.0,13.4,1505.3,326.7,-0.7,1.8,2470.302,13.33,0.038,21.2
2020-05-11T08:55:03,42.805,6.029,0.01,0.029,0.003,104.0,109.0,102.0,13.4,1505.3,328.3,-0.7,1.8,2470.351,13.33,0.03,19.0
2020-05-11T08:58:03,42.805,6.029,-0.009,0.034,-0.044,104.0,110.0,104.0,13.3,1505.3,328.2,-0.7,1.8,2470.364,13.33,0.035,345.2
2020-05-11T09:04:03,42.805,6.029,0.008,0.039,-0.007,104.0,108.0,102.0,13.4,1505.3,328.5,-0.7,1.8,2470.364,13.31,0.039,11.6
2020-05-11T09:07:03,42.805,6.029,0.011,0.036,-0.027,104.0,108.0,103.0,13.3,1505.3,327.5,-0.7,1.8,2470.401,13.32,0.037,17.0
2020-05-11T09:10:03,42.805,6.029,0.019,0.026,0.003,103.0,108.0,102.0,13.4,1505.3,325.3,-0.7,1.8,2470.408,13.32,0.032,36.2
2020-05-11T09:13:03,42.805,6.029,0.013,0.02,-0.017,105.0,108.0,101.0,13.4,1505.3,326.7,-0.7,1.8,2470.361,13.33,0.023,33.0
2020-05-11T09:16:03,42.805,6.029,-0.003,0.039,-0.008,103.0,108.0,101.0,13.4,1505.3,323.2,-0.7,1.8,2470.328,13.33,0.039,355.6
2020-05-11T09:19:03,42.805,6.029,0.018,0.041,-0.015,103.0,107.0,102.0,13.4,1505.3,327.0,-0.7,1.8,2470.334,13.33,0.044,23.7
2020-05-11T09:22:03,42.805,6.029,0.019,0.026,-0.05,105.0,108.0,102.0,13.4,1505.3,324.8,-0.7,1.9,2470.338,13.33,0.032,36.2
2020-05-11T09:25:03,42.805,6.029,0.016,0.056,0.002,105.0,108.0,101.0,13.4,1505.3,327.1,-0.7,1.8,2470.353,13.33,0.058,15.9
2020-05-11T09:28:03,42.805,6.029,-0.004,0.051,-0.008,104.0,108.0,101.0,13.4,1505.3,328.3,-0.7,1.8,2470.351,13.33,0.051,355.5
2020-05-11T09:31:03,42.805,6.029,0.003,0.032,-0.025,104.0,110.0,101.0,13.4,1505.3,328.2,-0.7,1.8,2470.36,13.33,0.032,5.4
2020-05-11T09:34:03,42.805,6.029,0.018,0.03,-0.001,104.0,108.0,101.0,13.3,1505.3,326.9,-0.7,1.8,2470.287,13.33,0.034,31.0
2020-05-11T09:37:03,42.805,6.029,0.014,0.041,0.054,104.0,107.0,101.0,13.3,1505.3,324.5,-0.7,1.8,2470.311,13.33,0.043,18.9
2020-05-11T09:40:03,42.805,6.029,0.004,0.041,-0.034,103.0,109.0,102.0,13.4,1505.3,323.4,-0.7,1.8,2470.311,13.33,0.041,5.6
2020-05-11T09:43:03,42.805,6.029,0.005,0.032,0.003,103.0,108.0,103.0,13.4,1505.3,323.1,-0.7,1.8,2470.342,13.33,0.032,8.9
2020-05-11T09:46:03,42.805,6.029,0.01,0.01,-0.022,105.0,107.0,101.0,13.4,1505.3,328.4,-0.7,1.9,2470.32,13.33,0.014,45.0
2020-05-11T09:49:03,42.805,6.029,0.011,0.034,0.001,104.0,108.0,102.0,13.4,1505.3,324.1,-0.7,1.9,2470.367,13.33,0.035,17.9
2020-05-11T09:52:03,42.805,6.029,0.018,0.047,-0.01,105.0,108.0,101.0,13.4,1505.3,327.2,-0.7,1.8,2470.313,13.33,0.05,21.0
2020-05-11T09:55:03,42.805,6.029,0.021,0.054,-0.008,105.0,108.0,101.0,13.4,1505.3,323.5,-0.7,1.9,2470.342,13.33,0.057,21.2
2020-05-11T09:58:03,42.805,6.029,0.037,0.045,-0.01,106.0,109.0,101.0,13.3,1505.3,327.2,-0.7,1.8,2470.344,13.33,0.058,39.4
2020-05-11T10:04:03,42.805,6.029,-0.019,0.022,-0.025,104.0,107.0,102.0,13.3,1505.3,325.5,-0.8,1.8,2470.35,13.31,0.029,319.2